Flag for U.S.A. Weather past 2 weeks in Boulder, Colorado, U.S.A.

Now
66 °F

Sunny.


Feels Like: 66 °F
Forecast: 37 / 68 °F
Wind: 5 mph from North

Location: Broomfield / Jeffco

Current Time: Jan 26, 2015 at 12:03:41 PM

Latest Report: Jan 26, 2015 at 10:50 AM


Visibility: 50 mi

Pressure: 30.29 "Hg

Humidity: 22%

Dew point: 27 °F

Location of BoulderLocation

Historic Weather in Boulder — Graph

°F

Boulder temperature yesterday

Maximum temperature yesterday: 61 °F (at 12:45 PM)
Minimum temperature yesterday: 32 °F (at 4:36 AM)
Average temperature yesterday: 45 °F

Past Weeks' High & Low Weather Summary

 TemperatureHumidityPressure
High66 °F (Jan 26, 10:50 AM)100% (Jan 12, 1:35 AM)30.34 "Hg (Jan 12, 1:35 AM)
Low12 °F (Jan 22, 4:35 AM)7% (Jan 18, 2:55 AM)29.86 "Hg (Jan 16, 2:50 PM)
Average37 °F53%30.16 "Hg
* Reported Jan 11 10:45 AM — Jan 26 10:50 AM, Boulder, Weather by CustomWeather, © 2014

Note: Actual official high and low records may vary slightly from our data, if they occured in-between our weather recording intervals... More about our weather records

Advertising

Boulder weather history for previous 24 hours

 ConditionsComfort  
Time TempWeatherWind HumidityBarometerVisibility
10:50 AM
Jan 26
66 °FSunny.5 mph22%30.29 "Hg50 mi
9:50 AM59 °FSunny.5 mph27%30.28 "Hg50 mi
8:51 AM54 °FPassing clouds.5 mph38%30.27 "Hg50 mi
7:45 AM45 °FPassing clouds.7 mph42%30.27 "Hg30 mi
6:47 AM39 °FPassing clouds.3 mph52%30.25 "Hg30 mi
5:48 AM41 °FClear.3 mph49%30.22 "Hg30 mi
4:56 AM45 °FClear.No wind42%30.22 "Hg10 mi
4:36 AM41 °FClear.No wind49%30.21 "Hg10 mi
3:55 AM45 °FClear.3 mph39%30.20 "Hg10 mi
3:36 AM45 °FClear.No wind42%30.20 "Hg10 mi
3:16 AM46 °FClear.3 mph37%30.21 "Hg10 mi
2:56 AM45 °FClear.7 mph42%30.21 "Hg10 mi
2:36 AM45 °FClear.6 mph42%30.21 "Hg10 mi
2:16 AM45 °FClear.6 mph42%30.22 "Hg10 mi
1:55 AM46 °FClear.5 mph40%30.22 "Hg10 mi
1:35 AM50 °FClear.No wind35%30.21 "Hg10 mi
1:16 AM50 °FClear.6 mph35%30.20 "Hg10 mi
12:56 AM50 °FClear.9 mph35%30.21 "Hg10 mi
12:36 AM50 °FClear.10 mph35%30.22 "Hg10 mi
12:16 AM46 °FClear.7 mph40%30.22 "Hg10 mi
11:56 PM
Jan 25
46 °FClear.6 mph40%30.22 "Hg10 mi
11:36 PM45 °FClear.10 mph42%30.22 "Hg10 mi
11:16 PM46 °FClear.10 mph40%30.23 "Hg10 mi
10:56 PM46 °FClear.12 mph40%30.23 "Hg10 mi
10:36 PM46 °FClear.13 mph43%30.22 "Hg10 mi
10:16 PM45 °FClear.10 mph46%30.22 "Hg10 mi
9:46 PM46 °FClear.10 mph40%30.20 "Hg30 mi
8:46 PM46 °FClear.9 mph43%30.19 "Hg30 mi
7:48 PM50 °FPassing clouds.12 mph37%30.19 "Hg30 mi
6:47 PM50 °FPassing clouds.17 mph37%30.19 "Hg25 mi
5:47 PM50 °FPassing clouds.15 mph35%30.17 "Hg25 mi
3:47 PM55 °FScattered clouds.23 mph28%30.13 "Hg30 mi
2:59 PM59 °FScattered clouds.20 mph27%30.12 "Hg30 mi
12:45 PM61 °FScattered clouds.17 mph25%30.13 "Hg30 mi
Weather by CustomWeather, © 2014

See weather overviewHow to use our weather pages